Theta_e
352 351 354 357 358 359 358 356 358 358 359 353 353 353 351 350 354 354 359 359 356 357 357 356 360 360 357 356 356 359 360 363 363 360 362 361 363 368 378 376 374 374 373 374 373 372 371 371 371 368 367 367 367 367 366 365 365 365 364 363 364 364 364 363 362 362 363 362 363 363 363 362 362 362 362 363 362 362 362 362 362 360 359 359 360
349 352 348 349 351 355 358 357 354 355 354 353 353 350 349 349 349 351 348 350 349 352 352 354 354 355 357 356 355 356 362 359 361 360 363 362 364 364 377 375 373 372 373 374 374 372 372 371 371 370 368 366 366 365 366 365 365 365 365 365 365 364 364 364 363 363 363 363 363 362 362 362 362 362 362 362 363 363 361 361 361 362 361 361 362
347 349 347 345 347 350 352 354 352 351 355 353 356 355 353 351 349 348 353 353 351 350 349 350 354 351 355 355 355 358 357 360 359 359 358 361 363 365 376 375 372 373 373 374 373 373 372 371 370 370 368 367 366 366 365 364 365 365 365 365 365 366 365 365 364 364 364 364 364 364 364 364 363 363 363 362 363 363 362 362 362 363 362 362 362
349 349 348 348 346 344 348 353 351 351 356 353 353 357 357 354 353 353 354 356 355 352 352 347 348 349 353 352 355 355 356 357 357 358 359 361 361 364 367 373 375 374 374 373 373 373 372 371 370 369 368 366 366 366 366 365 364 365 364 364 365 367 366 365 364 364 364 364 364 364 364 364 364 364 363 363 363 363 363 363 362 362 363 363 362
350 358 357 350 347 349 353 356 355 357 356 355 354 359 357 355 356 356 355 356 354 354 351 349 346 347 349 351 353 353 355 356 358 359 357 359 361 361 364 367 373 376 375 374 374 373 372 371 370 369 368 367 367 366 366 365 364 364 365 364 365 364 364 364 366 365 366 365 365 365 365 365 365 364 363 364 364 364 364 364 364 363 363 363 363
356 355 361 355 355 357 357 354 355 359 360 357 352 354 353 354 352 353 354 354 352 355 352 351 348 344 346 350 352 355 354 354 355 356 358 358 359 365 362 363 363 374 377 376 375 374 373 371 370 369 368 367 367 366 365 365 364 363 364 363 363 363 362 361 362 364 365 365 365 364 365 365 363 361 362 362 363 365 363 362 362 362 362 363 363
360 354 357 362 355 352 354 353 355 359 353 352 351 353 354 353 352 352 354 354 352 355 353 354 351 348 344 346 347 349 356 355 356 356 356 360 361 360 363 361 363 365 367 377 376 374 373 371 370 370 369 368 367 366 366 365 364 364 363 364 363 362 362 361 361 363 361 362 363 362 363 361 360 360 360 361 362 361 361 361 362 362 362 362 362
362 361 355 357 354 352 350 354 356 356 350 351 357 355 352 350 354 353 351 351 353 351 355 355 354 350 348 347 349 351 352 358 356 355 356 360 360 361 363 364 364 364 365 367 376 377 374 372 370 370 369 368 368 367 367 366 365 364 364 363 363 363 363 363 362 362 361 361 362 362 362 361 360 359 360 360 361 361 360 360 360 361 361 361 361
368 366 360 356 354 354 351 352 354 353 349 345 349 351 351 347 353 355 355 351 351 350 352 355 354 352 350 347 346 351 351 357 358 358 357 360 360 357 356 360 364 364 368 365 363 373 377 373 371 370 369 368 368 368 368 367 367 366 365 365 363 363 364 364 364 363 363 362 362 362 361 362 361 361 361 360 360 361 360 360 360 361 361 361 361
369 368 364 356 356 357 357 358 356 352 350 350 347 348 352 352 351 354 354 353 351 351 349 351 351 351 352 348 348 347 350 357 359 359 358 356 358 357 357 358 359 360 363 362 362 365 371 376 372 371 370 370 369 369 368 368 368 368 367 366 365 364 364 364 364 364 364 363 363 362 362 362 361 361 362 362 361 361 361 361 361 361 362 362 361
366 370 366 359 359 360 361 364 362 358 356 354 352 351 350 347 352 354 357 356 355 355 349 346 346 351 352 352 349 349 352 350 355 354 355 354 354 358 357 361 359 359 362 363 362 364 365 375 376 373 371 371 370 369 369 369 368 369 368 367 367 366 365 364 364 364 365 364 364 363 363 362 362 361 361 361 361 361 362 362 361 362 361 362 362
369 371 371 364 359 359 361 363 361 358 355 353 352 350 348 349 348 351 354 354 355 355 357 352 350 354 355 354 353 350 347 347 351 352 355 354 355 356 354 355 357 359 358 360 362 361 365 370 375 375 369 372 371 370 370 369 369 369 369 369 368 368 367 366 366 365 365 364 364 364 364 364 363 363 362 362 362 362 362 362 362 362 362 362 362
368 369 369 367 365 361 363 363 359 358 356 355 355 355 354 355 353 357 352 351 349 351 353 354 353 353 355 353 353 353 351 350 350 350 349 350 353 353 353 353 355 357 361 359 360 361 360 368 372 374 371 369 376 373 371 370 370 369 370 369 369 369 368 368 367 367 366 365 365 365 365 364 364 364 364 363 364 363 363 363 363 363 363 363 363
370 371 369 367 365 361 364 363 360 359 358 357 356 358 361 359 356 353 350 348 348 351 350 349 346 347 347 349 351 353 354 351 349 348 349 350 350 351 354 352 351 352 356 360 360 359 359 362 370 371 371 371 371 378 375 373 372 370 370 369 369 369 369 369 369 368 367 367 367 367 366 365 365 365 364 365 365 365 365 364 364 364 364 364 364
370 370 367 366 362 361 361 363 365 362 359 358 358 358 360 358 359 355 354 351 350 352 354 352 345 348 351 349 345 344 350 347 349 349 346 345 347 349 351 351 350 351 352 356 360 362 358 360 362 365 371 371 367 371 377 375 373 372 371 370 370 370 370 370 370 369 368 368 368 368 367 366 366 366 366 365 365 366 365 365 365 365 365 365 364
366 365 365 364 364 363 360 358 361 366 361 357 357 355 357 355 355 356 355 351 351 351 354 356 355 350 345 345 346 343 340 346 347 347 348 345 344 345 349 349 349 350 351 349 353 361 362 362 361 365 372 373 375 369 369 373 374 373 372 372 370 370 370 371 371 370 370 369 369 369 368 368 367 367 367 366 366 366 366 366 366 366 366 364 363
365 364 364 364 365 364 362 361 360 360 359 357 357 355 356 356 357 357 356 356 351 353 354 352 352 357 352 347 345 339 341 345 344 345 346 344 344 343 346 348 349 348 347 347 349 356 356 359 363 365 372 378 378 375 372 369 371 378 377 373 372 371 369 371 372 372 371 370 370 370 369 369 369 368 368 368 367 367 366 366 366 365 361 361 358
365 364 364 363 366 366 366 363 360 358 357 356 356 355 356 356 358 358 355 359 357 355 352 353 352 357 356 355 354 346 343 345 343 339 345 346 346 344 347 351 352 350 348 347 349 350 355 355 361 366 371 374 376 374 373 370 373 372 377 378 374 373 370 370 372 372 372 371 371 370 370 370 369 369 369 368 368 367 367 364 362 361 360 357 354
362 363 364 366 366 365 367 366 362 359 359 357 357 357 357 358 360 359 359 360 360 356 352 352 354 355 354 353 355 356 353 347 341 342 337 341 345 344 344 345 347 349 349 347 349 350 352 354 353 355 362 370 373 372 372 370 369 370 371 373 373 372 370 369 371 372 372 372 371 371 370 370 370 370 370 369 368 368 368 360 355 355 357 355 353
361 364 363 365 366 365 366 366 362 361 359 359 358 359 359 360 363 363 362 362 361 357 356 353 352 352 355 355 353 356 356 354 351 343 342 338 340 344 346 344 347 350 350 348 347 348 348 350 351 352 354 360 368 370 370 368 372 372 370 372 374 374 372 371 371 372 372 372 372 371 371 370 370 370 369 369 369 369 364 355 353 356 355 350 352
364 366 365 366 366 367 367 367 364 365 365 362 362 361 360 360 362 361 362 361 362 361 360 356 354 353 353 355 353 351 355 354 350 347 346 343 339 340 340 345 346 348 352 352 350 349 349 350 351 352 357 361 366 370 370 370 369 375 371 372 371 374 374 373 372 372 372 372 372 371 371 371 370 370 369 369 369 369 364 356 359 359 354 353 354
365 369 370 367 365 367 364 363 364 363 364 366 365 363 361 362 361 361 361 362 364 363 360 360 357 358 358 359 356 353 352 350 348 344 344 348 339 340 340 340 340 344 347 350 352 351 351 351 353 353 353 358 362 366 373 374 372 371 372 371 370 372 373 375 373 373 373 373 372 372 371 371 371 370 370 369 369 368 367 361 362 362 360 358 358
364 367 365 365 366 365 362 362 363 366 364 363 361 358 357 358 358 361 361 360 360 362 361 362 360 357 356 359 357 354 350 345 346 344 343 344 344 341 342 340 338 339 347 352 352 353 352 352 352 353 356 357 358 364 371 376 374 369 371 372 370 369 370 373 374 374 373 373 373 373 371 371 371 371 370 370 368 367 366 365 364 363 362 362 361
363 363 365 364 364 363 365 365 363 363 360 358 356 353 352 352 351 355 356 359 362 363 364 362 361 359 360 359 357 356 354 351 350 347 345 344 343 345 342 342 341 342 345 351 354 354 354 354 356 356 355 356 361 365 367 371 374 373 371 372 370 369 369 370 373 374 373 373 373 373 372 371 371 371 371 369 368 367 366 365 363 361 360 360 359
363 362 362 364 364 363 363 361 361 362 364 360 356 355 353 351 350 350 355 359 360 362 362 363 361 358 357 358 358 356 355 356 354 348 345 350 350 346 344 343 339 342 348 349 349 353 354 355 356 357 357 358 359 364 365 368 368 373 372 370 369 370 369 368 371 372 373 373 374 374 373 372 371 371 370 368 367 366 364 362 360 359 359 358 358
360 361 359 359 360 361 361 362 363 363 362 363 360 360 357 353 354 354 355 357 360 363 364 362 360 360 360 356 354 355 355 356 356 352 349 349 347 345 344 343 343 340 345 349 351 349 353 355 357 357 358 361 360 364 367 364 365 373 372 368 370 367 367 368 370 372 372 373 374 374 374 373 372 371 369 368 365 364 361 359 359 359 358 358 358
347 349 353 354 355 357 356 357 357 357 358 358 353 355 355 358 358 358 359 360 362 362 359 358 356 355 356 356 354 355 355 356 356 352 351 348 349 348 347 342 340 341 340 345 349 350 352 356 359 356 358 361 363 366 364 364 363 374 372 373 373 364 365 365 367 369 371 373 374 374 374 374 372 370 369 367 362 361 361 359 358 358 357 357 357
348 350 352 353 351 351 353 350 353 352 353 354 354 352 352 352 356 360 359 359 358 359 358 357 357 357 356 356 355 355 356 356 355 355 356 356 352 353 351 344 340 339 341 341 344 349 354 353 358 359 359 359 361 364 368 364 362 374 374 371 370 373 362 363 364 367 370 373 374 374 374 373 372 370 365 364 363 362 360 358 358 358 357 357 357
344 348 348 351 352 353 352 347 346 350 351 352 351 353 357 358 357 359 358 358 359 357 357 355 356 355 356 356 354 355 356 357 356 356 358 357 354 354 354 349 343 342 341 339 343 344 352 356 354 357 360 359 361 361 361 365 364 371 372 372 370 375 364 359 361 364 367 370 372 373 373 371 369 366 364 364 362 361 359 357 357 358 357 357 357
343 344 347 348 349 350 349 349 347 349 349 349 349 351 357 357 359 360 360 360 358 357 357 356 355 356 355 355 355 354 356 357 356 356 357 358 357 354 353 354 354 345 345 342 342 347 350 357 360 358 363 364 359 360 357 361 365 366 367 371 370 371 362 358 360 361 362 364 366 367 367 367 367 365 364 363 361 359 358 356 357 358 357 356 357
344 347 348 347 347 346 348 347 347 348 350 350 351 351 352 352 355 355 357 360 359 357 357 357 355 355 355 354 355 354 355 355 355 355 356 357 358 357 357 356 354 355 350 347 344 347 353 352 353 361 362 367 363 359 357 360 364 366 367 370 371 366 361 366 360 360 360 360 360 362 365 367 365 365 363 361 359 358 357 356 356 357 357 357 357
342 342 342 343 344 344 343 342 342 343 346 347 349 350 351 353 353 352 352 356 356 359 359 356 354 355 356 356 356 356 356 356 356 356 357 359 359 359 358 358 360 357 354 351 347 348 351 352 355 361 363 364 366 358 359 363 371 364 372 370 377 365 375 377 360 360 359 357 356 357 359 363 364 362 361 360 358 357 356 356 357 357 357 357 355
343 343 343 345 345 345 345 346 344 346 347 348 348 349 351 351 353 355 355 354 354 354 358 357 355 354 356 357 358 359 360 359 356 357 358 358 356 359 362 362 355 355 354 352 345 349 353 355 358 360 360 364 362 363 360 363 370 373 367 375 378 374 373 373 373 356 356 355 354 353 353 356 359 360 360 358 357 357 356 356 357 357 356 355 353
343 344 346 345 346 346 345 346 347 346 349 351 349 350 350 350 350 350 349 351 352 352 354 355 356 355 355 356 355 355 360 359 357 357 355 356 359 359 360 357 353 353 359 351 350 353 348 353 356 360 359 364 361 364 361 359 367 374 369 374 377 376 373 373 371 369 352 353 352 351 350 351 353 356 357 357 357 356 355 356 356 356 355 351 348
346 344 343 343 344 346 346 346 347 347 349 349 349 350 351 352 351 350 348 348 348 347 348 351 353 355 354 355 354 355 357 356 356 357 358 358 360 359 358 360 357 356 360 357 352 353 349 348 356 358 360 365 362 359 360 363 367 373 371 372 370 372 373 372 370 369 350 351 349 349 348 348 349 350 352 353 354 354 354 354 352 349 344 340 338
344 345 345 344 347 349 348 348 349 351 351 352 351 351 353 354 353 351 350 349 348 347 347 348 348 350 351 353 354 355 357 357 355 355 359 358 357 359 359 360 360 361 361 359 356 353 353 349 351 355 358 359 364 365 364 363 363 368 369 371 369 370 370 369 368 369 356 349 349 348 347 346 346 346 346 347 348 350 348 344 340 336 334 334 334
347 347 346 347 347 348 346 347 349 351 351 353 353 354 354 355 353 352 351 351 350 350 350 350 350 350 350 350 350 354 355 355 357 359 356 356 357 357 358 359 358 359 359 358 357 356 351 349 348 352 358 360 365 363 363 361 363 366 371 369 367 368 367 366 366 366 353 349 348 347 346 345 345 343 342 342 342 342 339 335 334 333 332 332 332
353 351 350 349 345 344 345 345 347 350 352 353 353 353 353 353 351 351 351 351 351 351 351 350 350 350 349 350 351 352 352 352 354 354 356 357 357 356 356 359 359 358 357 357 357 354 351 350 353 347 357 361 362 365 364 362 360 360 364 367 367 366 365 362 362 362 361 359 359 355 345 345 343 341 341 340 339 337 335 334 333 331 330 329 329
353 352 351 350 348 347 349 350 348 349 350 351 351 352 353 353 353 352 351 351 351 350 351 351 350 350 349 348 349 350 350 351 352 354 357 357 357 356 357 358 359 358 356 354 354 353 352 352 352 353 351 357 362 363 366 368 366 362 358 360 359 362 363 361 360 357 362 360 356 352 353 350 349 350 338 337 335 334 333 333 333 332 330 327 325
353 352 351 350 350 350 350 351 351 351 352 351 351 351 352 351 351 351 351 350 349 349 350 350 350 350 349 349 349 350 349 349 350 352 357 356 357 358 356 357 357 357 356 355 354 352 349 350 346 350 351 349 360 363 364 361 354 358 359 352 354 354 357 361 361 358 358 360 357 355 349 348 349 347 338 338 336 335 334 333 333 333 331 327 323
350 350 350 350 349 349 350 350 351 350 349 348 349 349 350 350 350 350 349 348 349 348 347 348 349 349 350 350 350 351 352 352 350 352 355 356 357 356 358 358 357 357 357 354 354 352 348 348 345 347 352 351 353 356 353 351 353 356 360 357 355 357 357 359 361 362 360 355 355 352 351 351 349 347 349 349 344 339 339 338 336 333 331 326 323
352 352 352 351 350 349 348 349 350 349 348 349 348 348 348 350 350 349 348 348 349 348 346 346 347 348 349 349 350 351 347 348 348 350 350 350 351 355 359 357 357 357 357 357 356 352 348 348 348 344 345 349 349 347 350 355 360 362 359 359 354 356 356 357 356 359 358 354 351 350 350 351 350 347 347 345 345 344 343 343 342 336 328 322 320
351 351 350 350 349 349 348 348 348 347 347 347 346 340 340 341 349 349 346 346 347 347 346 345 346 347 348 349 351 351 350 350 354 348 349 349 349 349 349 351 351 347 347 351 354 352 348 345 346 346 344 346 351 353 355 355 355 358 358 359 358 357 353 347 348 356 359 356 353 349 350 353 351 345 346 346 344 344 344 344 337 330 324 321 320
348 348 347 347 348 348 347 347 346 346 346 344 336 336 338 337 342 347 345 345 344 345 346 346 345 346 346 347 349 350 350 351 352 354 352 347 347 348 349 349 349 350 351 354 354 352 348 344 345 344 345 346 352 355 356 355 353 360 362 362 360 357 353 351 352 350 354 357 352 350 347 352 351 347 345 345 345 345 344 338 330 326 322 320 320
347 346 347 346 346 346 346 345 345 345 345 340 334 334 334 334 335 343 345 344 343 344 344 345 344 345 347 347 347 348 349 346 349 351 352 354 349 343 343 346 347 346 343 344 347 355 355 352 347 350 350 351 353 354 354 358 363 355 359 359 358 354 352 353 354 355 355 357 354 349 345 347 349 345 343 345 346 345 343 333 327 324 321 320 319
345 345 345 344 345 346 346 345 345 345 345 341 333 332 331 331 332 336 346 344 344 344 344 345 344 345 346 348 346 346 349 351 353 352 352 352 352 355 357 355 356 352 345 345 347 350 350 354 352 351 354 359 357 359 362 361 357 353 358 351 357 357 357 355 359 358 357 354 350 348 344 345 345 344 342 345 346 345 345 329 323 322 320 319 319
343 343 343 344 344 344 345 345 344 343 343 335 331 330 329 328 329 334 345 344 344 344 345 345 346 346 346 348 348 346 348 349 350 352 352 352 353 353 351 355 355 355 355 356 356 356 353 353 354 356 356 358 359 362 365 362 359 357 358 361 363 361 359 361 362 353 350 354 354 347 336 342 347 344 343 344 344 343 340 322 321 320 319 319 318
344 344 344 344 344 344 344 345 343 342 343 333 329 328 326 326 329 343 344 345 343 343 345 346 347 348 348 347 348 348 348 348 346 342 345 352 351 352 353 354 356 354 355 354 347 349 357 358 357 356 356 357 349 363 366 366 363 362 360 366 361 359 354 349 347 344 345 354 356 346 343 342 345 342 342 344 344 341 334 326 321 320 318 318 318
341 342 343 342 343 343 343 343 343 342 343 336 328 325 324 324 329 343 345 343 342 340 343 345 347 347 347 346 344 348 349 350 344 335 336 345 350 348 349 352 351 351 351 354 344 337 339 338 339 340 341 340 338 336 336 340 352 353 355 350 345 345 345 341 345 343 343 349 351 349 346 344 341 342 344 345 340 338 330 325 323 319 318 318 317
340 341 342 341 342 342 343 342 342 342 343 339 329 325 323 323 333 344 344 341 340 342 340 342 346 347 347 339 346 345 348 348 338 332 333 345 347 348 349 346 345 346 348 351 353 354 336 335 337 338 338 339 340 339 337 335 335 344 352 346 346 347 343 346 344 345 344 344 345 350 347 343 342 344 342 342 339 333 327 326 323 320 318 317 317
340 340 340 339 339 340 341 342 339 340 342 338 328 324 323 322 332 344 345 345 343 342 340 340 344 345 344 343 341 340 343 342 332 331 330 341 346 345 347 347 346 346 347 350 351 352 355 355 353 352 349 347 352 357 357 344 338 342 351 353 357 352 349 347 348 347 344 342 345 351 345 345 339 342 336 327 326 329 327 323 320 318 318 319 318
Wind_Speed
3 4 2 2 3 3 3 3 3 3 3 4 3 3 3 3 3 4 4 4 4 5 3 5 4 4 4 5 6 4 4 4 5 5 5 4 5 6 11 10 10 11 12 12 12 12 12 12 12 13 14 14 14 14 14 14 13 13 13 13 13 13 13 13 13 13 13 13 13 13 13 13 13 13 12 13 13 12 12 12 10 11 10 13 13
3 3 4 3 4 4 4 5 4 4 5 4 4 4 4 4 4 4 5 5 5 5 5 6 6 5 5 5 5 5 5 5 5 5 5 5 4 4 11 11 10 12 12 12 12 12 12 12 13 13 14 14 15 15 14 14 14 14 13 13 13 13 13 13 13 13 14 13 13 13 13 13 12 12 12 12 12 12 12 11 10 10 10 10 11
5 4 4 4 5 5 5 5 5 5 4 5 4 4 4 5 5 5 5 5 6 6 6 7 6 6 6 5 5 5 5 5 5 6 6 5 4 2 8 12 11 12 12 12 12 12 13 13 13 13 14 14 15 15 15 15 15 14 13 13 13 13 13 13 13 13 14 14 13 13 13 12 12 13 12 12 11 11 11 10 10 10 10 11 10
6 5 5 5 5 5 5 5 5 5 4 5 5 4 5 6 6 6 6 5 6 6 6 7 7 7 6 6 5 6 5 5 5 6 5 5 4 3 3 6 12 12 12 13 13 13 13 14 14 14 14 14 15 15 15 15 15 14 13 13 13 14 13 13 13 13 13 13 13 13 13 12 12 12 11 11 12 11 11 10 10 11 11 10 11
5 5 6 6 6 6 6 5 5 4 5 6 7 5 6 6 6 6 6 6 6 7 6 7 7 7 6 7 6 6 6 6 6 5 6 6 4 4 4 3 5 12 13 13 14 14 15 15 15 15 15 15 15 15 15 15 15 14 14 13 13 14 14 14 14 14 13 13 13 13 13 13 12 12 12 11 12 11 11 10 10 10 11 11 11
5 6 6 6 6 6 6 6 5 5 5 6 6 6 6 6 7 6 6 6 6 6 6 7 7 7 7 6 6 5 5 6 6 6 6 6 6 2 3 4 4 5 7 14 15 15 16 16 16 16 16 16 16 16 16 15 15 15 14 14 14 14 13 12 12 11 13 14 14 13 13 14 14 11 11 12 12 14 13 12 11 11 11 11 11
6 6 6 6 7 7 6 6 6 6 6 6 6 6 6 7 6 7 7 6 7 6 7 7 7 8 7 7 7 6 5 6 6 6 6 6 5 5 4 5 4 5 6 6 13 17 17 17 16 16 17 17 17 17 16 16 16 16 15 15 14 14 14 12 12 11 11 12 13 13 13 13 13 14 13 13 13 14 13 12 12 11 10 10 10
7 6 7 7 7 7 7 6 6 6 7 7 6 7 7 8 7 7 7 8 7 8 7 7 7 8 8 7 7 7 7 6 6 7 6 6 6 5 4 5 5 5 4 5 6 11 18 17 17 17 17 18 17 17 17 17 17 17 16 16 15 15 14 14 13 13 13 13 12 12 14 14 14 14 13 13 13 14 13 12 12 12 11 11 11
7 7 7 8 7 8 7 8 7 7 7 8 9 7 8 8 6 6 7 7 8 9 8 7 8 8 8 8 8 7 7 6 6 6 6 6 6 7 8 9 6 5 4 6 9 7 16 19 19 18 18 18 18 18 18 17 18 17 17 17 16 15 15 15 15 14 13 14 14 14 15 14 14 13 13 13 13 13 14 13 12 12 11 11 11
7 7 7 7 7 7 7 8 7 7 7 8 8 9 9 8 8 7 7 7 8 9 9 9 8 8 8 10 9 7 7 6 6 6 7 8 8 9 9 8 7 8 8 10 11 7 8 16 20 19 19 19 19 18 18 18 18 18 18 17 17 17 16 16 16 15 13 14 14 14 13 14 14 14 13 13 13 12 12 12 12 12 12 12 12
7 7 7 7 5 5 6 5 4 6 7 7 8 8 8 10 9 8 7 7 7 8 9 10 11 10 9 10 10 9 7 8 7 8 8 9 8 8 8 7 7 8 7 7 8 8 7 7 10 11 13 21 19 19 19 18 18 18 18 18 18 17 17 17 16 15 14 15 14 14 14 14 14 14 13 13 13 12 13 13 13 13 12 12 11
7 7 7 6 6 6 7 6 5 6 7 8 8 8 9 10 11 10 9 9 8 8 7 7 10 11 9 9 10 11 11 9 9 9 8 9 9 8 10 10 9 9 9 8 8 8 8 8 8 9 9 16 21 19 20 19 19 19 19 19 18 18 18 18 17 17 16 15 16 15 14 14 15 14 14 13 12 13 13 13 13 13 12 12 11
7 7 6 6 6 6 7 7 7 7 7 8 8 9 9 10 9 9 11 10 9 9 9 8 8 8 9 11 10 10 10 10 11 11 10 9 9 8 8 9 9 9 8 8 8 8 8 9 8 7 8 8 14 21 21 20 19 20 20 19 19 19 19 19 18 18 17 17 16 16 15 15 15 15 15 14 13 12 13 14 14 13 13 11 11
6 7 7 7 7 7 8 8 8 7 8 9 10 10 10 10 8 8 10 12 10 9 7 7 9 9 9 8 8 7 8 9 11 11 11 10 10 9 9 9 10 10 9 8 8 9 9 8 9 9 9 8 8 10 13 15 16 20 20 20 20 20 20 20 19 19 18 17 17 15 15 16 16 16 15 14 14 13 13 14 14 13 11 11 11
7 7 7 9 9 8 8 7 8 8 8 9 10 11 9 10 9 8 7 11 11 8 7 8 9 9 9 9 9 8 6 8 9 10 10 10 9 9 9 10 11 11 10 9 8 8 9 9 9 11 11 10 10 9 9 12 14 19 21 20 21 20 21 20 20 19 19 19 16 15 16 17 17 16 15 15 14 14 13 14 13 12 11 11 12
8 9 8 8 8 8 8 9 8 8 8 8 9 11 10 11 11 11 10 10 9 9 9 8 8 7 9 8 6 9 9 6 6 7 9 10 10 10 9 10 11 11 10 11 10 8 8 8 9 8 8 10 9 9 9 8 13 17 19 20 21 20 21 21 21 20 19 19 17 16 17 17 17 16 15 16 15 15 14 13 12 12 12 11 9
8 10 10 9 8 8 8 9 9 9 8 8 9 10 11 11 11 10 10 10 9 9 8 8 10 9 9 8 7 8 9 5 8 10 7 8 11 12 10 10 10 10 10 11 11 10 10 10 9 8 9 9 9 8 8 10 10 11 15 19 20 21 21 21 22 21 20 19 17 17 17 17 17 16 16 16 15 15 14 12 12 12 12 9 5
8 9 10 9 8 9 9 9 10 9 8 9 10 10 11 11 10 10 11 11 9 8 9 10 11 10 11 10 9 9 7 6 7 6 7 9 9 9 9 9 9 10 10 11 11 11 10 10 9 8 8 9 8 9 9 9 9 9 10 14 20 21 21 22 23 22 21 19 18 17 17 17 17 17 17 16 16 15 14 12 12 10 7 5 7
9 8 8 8 8 8 8 9 9 8 8 9 10 11 11 11 10 10 9 8 8 8 11 10 9 10 10 14 15 12 10 8 8 8 9 9 9 9 9 11 12 12 11 11 11 11 10 10 10 10 10 9 8 8 8 9 11 11 13 13 20 22 21 22 23 23 21 19 18 18 18 18 17 17 17 16 15 15 13 9 5 14 16 6 10
8 8 8 8 8 8 8 8 8 9 8 9 10 10 10 10 10 10 9 8 9 9 10 10 9 8 10 11 11 11 10 12 12 13 10 12 10 10 11 11 10 10 11 11 12 12 12 12 12 11 9 9 8 8 8 9 9 11 11 12 17 19 21 21 22 23 21 20 18 18 18 18 18 17 17 16 15 14 12 7 12 17 10 9 16
7 8 8 8 8 8 8 8 8 8 8 9 10 11 12 11 10 10 10 10 10 10 9 10 9 10 8 11 12 11 9 8 9 14 12 10 13 12 10 9 11 11 11 11 11 11 11 11 10 10 8 8 8 8 8 7 8 9 12 15 16 17 17 19 20 21 21 20 19 18 18 18 18 17 16 15 14 13 11 10 13 13 11 11 10
7 7 8 9 9 9 9 10 10 10 9 10 11 11 11 11 12 12 12 12 10 11 11 10 9 10 10 10 10 10 11 11 12 14 14 13 15 12 10 11 10 10 11 11 12 11 11 10 10 10 10 8 8 8 8 8 7 8 11 14 18 17 18 17 19 20 20 19 19 19 18 18 17 16 15 14 12 11 11 9 11 9 10 14 13
6 7 9 9 9 9 10 10 10 10 10 11 11 11 11 11 12 13 13 13 11 12 12 12 9 9 13 12 11 12 11 12 12 12 12 11 12 15 13 13 13 11 10 11 11 12 11 11 11 11 10 10 8 7 8 8 9 10 8 14 17 18 18 18 17 19 20 20 19 18 18 18 17 15 14 12 11 10 9 9 10 8 7 8 8
7 8 8 10 9 9 11 11 10 10 11 10 11 11 11 11 11 11 11 12 12 12 11 12 14 13 14 13 13 12 12 13 12 12 11 13 15 13 11 11 11 11 10 10 11 12 12 11 10 10 10 9 8 7 7 8 8 10 10 12 15 17 18 18 18 19 20 20 19 18 18 17 15 14 12 11 11 9 11 10 8 8 8 9 9
8 9 9 11 10 10 10 9 9 9 10 10 11 12 12 12 13 13 13 12 11 12 11 13 14 14 13 13 12 13 14 12 12 14 14 12 13 13 14 12 12 10 9 10 10 11 12 12 11 11 11 10 9 7 8 8 7 11 12 11 16 16 17 18 18 19 19 19 19 18 17 15 14 13 12 12 11 12 11 10 9 9 9 9 9
8 8 9 10 9 9 9 10 10 10 11 11 11 11 12 12 13 12 13 11 11 12 13 15 14 15 13 12 13 13 13 13 13 12 13 11 10 13 13 13 14 12 9 10 10 10 10 12 12 11 10 10 9 8 8 8 9 12 15 10 14 16 17 17 17 18 19 19 18 18 17 15 15 15 13 13 14 13 12 11 10 10 9 9 10
9 9 10 11 12 11 11 11 11 12 11 11 12 12 12 12 12 12 11 11 12 12 13 14 14 15 15 13 13 13 13 13 12 12 12 14 11 12 14 15 13 13 12 10 10 13 10 8 9 11 11 9 8 9 9 9 9 14 15 10 8 17 16 17 17 18 18 18 19 18 17 17 15 16 14 15 15 14 12 12 11 10 10 10 10
9 10 10 11 12 13 13 13 13 12 12 12 12 12 12 12 11 11 12 10 11 14 13 14 14 15 15 14 13 14 13 13 13 14 14 14 13 10 3 11 14 12 11 12 11 11 14 12 9 10 11 11 10 9 10 9 8 16 14 9 8 11 17 17 17 17 17 18 18 17 17 18 15 16 16 16 15 14 13 12 12 11 11 11 12
9 9 10 9 10 10 11 12 12 11 12 11 12 12 12 12 11 12 12 13 12 13 12 12 12 13 13 15 14 13 13 13 14 14 13 12 10 9 9 11 15 14 12 12 11 11 11 12 10 10 12 12 10 10 10 9 8 12 9 8 9 8 16 17 17 16 16 16 16 15 16 15 15 16 17 16 15 14 12 12 12 12 12 12 13
7 8 9 10 10 11 11 12 12 12 12 12 12 12 12 11 12 12 13 12 12 12 12 12 13 12 13 13 13 13 13 14 14 15 14 13 11 11 12 11 12 15 11 12 12 10 10 10 8 7 6 9 11 10 12 10 10 12 9 9 8 8 15 17 15 15 15 15 15 15 14 14 16 18 16 15 14 13 12 13 13 13 13 13 14
7 7 8 9 10 10 10 11 11 12 13 13 12 12 12 11 12 12 13 12 12 13 12 12 12 12 13 14 13 13 14 14 14 14 15 14 13 13 11 9 8 11 13 12 12 11 10 10 10 5 5 7 10 10 11 11 10 11 9 7 8 8 14 12 15 14 14 15 15 14 15 16 18 16 15 15 14 13 13 13 13 13 13 13 14
8 9 9 10 10 11 11 12 12 12 13 13 12 12 11 11 11 12 12 12 12 12 13 12 11 12 13 14 13 12 12 12 13 13 11 12 12 12 11 8 5 9 11 11 13 14 11 11 11 7 7 8 11 12 11 8 9 11 7 8 6 11 9 7 13 14 14 15 15 15 15 15 16 16 15 15 14 14 14 13 13 14 15 15 15
9 10 10 11 11 11 12 12 12 12 12 13 12 12 11 11 11 13 13 13 13 12 12 14 13 13 13 13 14 14 13 13 13 12 10 11 14 12 7 5 7 9 10 11 15 14 12 12 9 7 9 11 11 12 11 9 7 7 8 7 8 8 8 7 9 13 14 15 15 15 15 15 15 15 16 15 15 15 15 14 13 15 16 16 15
9 11 11 11 11 12 12 13 13 13 12 12 13 12 12 13 13 11 12 13 13 13 12 13 13 12 13 14 14 15 13 14 14 14 13 13 13 10 8 7 9 10 9 11 16 13 13 12 11 10 10 8 8 10 12 11 10 8 9 8 7 8 8 8 9 12 14 15 15 15 15 14 14 14 14 16 15 16 15 14 13 14 15 13 13
9 10 11 12 12 12 12 13 13 13 13 13 12 13 13 13 14 14 14 14 14 14 13 14 14 13 15 14 15 14 12 14 15 14 14 14 13 14 13 10 11 11 9 7 10 12 13 14 12 11 10 8 10 12 14 10 10 9 9 10 9 8 8 9 9 9 16 15 16 14 14 14 14 14 14 14 14 14 14 13 14 14 14 14 15
11 10 11 12 12 12 13 13 13 13 13 13 13 13 14 14 15 15 15 15 15 14 14 14 14 14 14 14 14 14 14 15 15 13 13 13 13 13 13 12 11 11 9 7 9 11 10 11 14 13 10 11 10 11 9 11 11 10 9 9 10 10 10 10 9 8 15 17 15 15 15 14 14 14 14 14 14 14 14 14 14 15 15 16 16
11 11 11 12 12 12 13 14 14 13 13 13 13 14 14 13 14 15 15 14 15 15 14 14 14 14 14 15 15 14 14 15 14 13 13 14 12 13 13 12 12 10 9 8 8 7 9 12 12 14 12 11 9 11 8 10 11 10 10 10 11 11 11 11 10 5 15 19 16 15 14 14 13 14 14 14 13 14 14 15 16 16 16 17 17
11 11 11 11 12 14 13 14 14 14 13 13 14 14 15 15 14 14 14 14 15 15 15 15 15 15 15 15 15 15 15 15 15 14 13 15 13 12 14 13 12 11 10 10 8 10 12 13 12 11 13 12 11 9 10 11 12 11 10 10 9 10 10 9 10 7 8 9 10 10 10 11 13 13 14 13 13 15 16 16 17 17 17 17 17
11 11 12 13 12 13 13 13 14 14 14 14 14 14 14 15 15 15 15 16 16 15 15 15 16 16 16 16 15 15 16 16 16 15 14 14 13 14 13 13 13 11 11 10 9 11 11 10 11 11 12 13 12 9 7 6 9 11 10 10 11 10 9 10 9 8 8 11 13 15 14 14 15 14 13 14 15 17 17 17 17 16 17 17 17
12 13 13 13 12 12 12 13 13 13 14 14 14 14 14 14 14 15 15 15 16 16 16 16 16 16 17 16 16 16 16 16 16 16 15 13 12 12 12 12 13 13 12 11 9 9 9 11 14 11 10 13 11 8 6 6 10 14 8 10 11 10 11 10 11 11 11 10 11 12 11 11 13 12 12 13 16 17 16 15 15 15 15 15 17
12 13 13 13 13 13 13 13 14 13 13 13 12 12 13 14 14 15 15 16 16 16 15 16 16 16 16 16 16 16 17 18 18 16 15 13 12 13 12 11 11 12 11 11 10 7 10 8 11 13 12 10 11 6 9 11 15 15 11 13 11 10 10 10 10 12 11 13 10 11 12 13 13 13 12 11 9 14 14 17 15 17 18 15 16
12 12 12 13 13 13 13 13 13 13 13 11 13 15 14 13 14 13 14 14 15 15 15 16 16 16 16 16 16 19 17 16 16 17 17 18 17 15 11 8 7 10 11 9 7 8 9 10 11 14 14 12 11 14 14 14 14 12 12 12 13 10 12 10 11 12 11 12 12 11 12 13 13 13 13 14 11 12 11 13 13 14 16 18 18
13 12 12 13 12 12 13 13 14 13 12 12 14 13 13 14 13 15 16 15 16 16 16 16 15 15 16 16 16 17 17 17 17 19 18 19 19 20 20 19 14 13 11 11 13 12 9 11 11 11 15 15 16 12 11 7 11 14 13 12 11 7 10 13 12 7 11 13 12 13 13 14 13 13 14 15 14 14 14 14 16 16 18 19 19
12 12 13 13 13 13 12 13 14 14 14 14 14 12 11 11 11 14 15 15 15 14 15 16 15 15 15 15 15 13 14 16 16 16 17 20 22 21 21 21 20 22 20 14 13 12 12 12 11 13 15 17 16 13 11 12 16 14 12 12 10 10 10 13 13 13 11 14 12 11 10 9 12 13 14 15 15 15 17 15 20 19 19 20 19
12 12 13 13 13 13 13 15 15 15 15 14 13 13 14 14 14 13 14 16 16 16 16 17 17 15 14 14 14 13 13 15 15 17 17 15 17 22 22 21 21 21 22 22 19 15 11 11 13 16 16 16 13 12 12 12 10 8 11 12 10 10 11 13 14 12 12 14 12 9 12 13 11 13 14 14 15 14 15 15 23 22 21 20 19
13 13 14 15 14 14 14 14 14 14 15 15 14 12 13 14 14 13 14 17 17 17 17 17 17 17 16 15 16 15 15 15 14 16 16 16 16 14 15 15 16 19 22 23 21 22 19 14 15 17 17 14 13 11 11 5 9 13 12 14 14 15 15 16 14 11 11 15 14 8 9 8 12 15 14 13 14 14 11 17 24 23 21 20 20
13 13 13 14 13 14 14 14 14 14 13 15 13 13 13 14 14 13 14 16 16 16 17 17 18 18 17 15 16 17 17 16 14 15 15 16 15 14 14 14 15 17 18 19 20 20 19 20 20 20 18 15 16 13 8 9 11 13 14 16 15 13 11 7 6 6 1 9 11 9 10 14 11 10 11 11 14 15 9 17 23 24 22 21 21
12 12 13 13 14 14 14 15 15 16 15 15 14 13 14 14 15 11 14 15 16 15 16 16 16 15 14 15 15 17 18 17 18 17 16 15 15 14 14 14 14 14 13 15 18 19 18 18 19 20 18 19 17 13 11 9 8 8 12 4 4 6 8 9 11 7 9 9 10 13 13 13 16 16 14 12 12 11 9 9 20 24 23 21 21
13 13 13 14 13 14 15 15 16 15 15 15 14 14 15 15 12 12 14 14 12 15 16 17 16 15 14 14 16 15 17 17 18 17 15 15 15 16 15 16 16 14 14 13 13 15 18 21 22 21 21 20 19 17 16 14 12 10 9 3 5 3 3 6 6 7 10 11 11 13 14 10 12 14 11 8 8 10 9 10 11 19 22 21 21
14 14 13 13 14 14 15 15 15 16 15 16 16 15 15 15 13 13 12 13 13 10 12 16 16 15 16 19 18 18 17 16 17 15 15 14 16 16 17 19 16 16 15 15 12 11 20 22 22 22 19 18 18 17 15 13 14 12 10 10 11 11 10 12 12 11 10 13 14 15 12 8 11 10 8 3 4 3 8 9 12 14 19 18 20
14 14 14 14 14 14 14 15 17 17 16 17 17 16 16 16 13 12 12 13 13 12 13 15 16 14 16 15 18 20 21 19 19 16 14 13 14 17 18 18 17 17 16 15 14 14 11 10 13 14 15 16 15 13 14 17 14 16 16 16 10 12 11 11 9 7 8 8 12 16 12 8 14 11 10 8 7 4 6 7 10 11 11 10 12
Wind_Direction
254 250 248 270 277 276 279 285 301 288 301 281 307 315 304 321 319 294 283 309 303 286 315 294 276 269 273 271 268 282 255 253 267 261 263 268 267 155 172 183 208 219 222 224 227 227 226 226 223 222 219 219 218 216 216 222 225 227 230 234 235 237 237 239 241 243 246 246 247 247 247 249 250 252 255 255 254 253 261 257 249 243 236 242 253
253 271 270 259 263 265 260 267 279 291 274 291 309 299 304 318 298 291 324 317 308 305 304 290 289 276 275 277 274 272 275 250 239 251 267 272 255 152 169 177 204 211 217 220 223 223 222 220 217 219 218 221 221 221 217 220 224 228 230 232 236 236 237 238 239 239 242 243 245 246 246 247 249 249 249 254 254 256 250 256 260 262 249 247 255
264 260 261 256 249 246 256 264 265 269 279 280 291 306 313 304 306 317 307 314 314 305 291 284 279 278 267 270 264 257 259 276 279 268 252 239 261 296 165 176 194 204 208 213 215 215 213 211 213 214 217 218 220 221 222 221 223 226 229 228 230 236 237 238 238 240 241 242 244 244 245 247 248 249 253 252 253 254 259 257 253 254 254 251 252
275 277 271 271 267 259 254 248 253 260 268 283 280 304 303 294 300 295 292 290 289 289 283 276 273 274 276 265 270 266 258 258 254 258 284 297 292 262 268 176 189 200 205 207 209 209 208 209 209 212 216 218 219 220 221 223 224 228 231 233 229 229 234 238 239 240 241 241 241 243 242 243 243 246 248 248 248 248 247 247 248 248 249 249 249
258 257 264 262 266 268 263 261 261 268 273 282 299 291 272 270 271 283 281 277 283 286 286 274 270 269 272 270 266 263 259 251 248 244 253 256 238 242 265 268 189 192 203 209 206 207 207 209 210 211 214 216 218 220 221 222 226 228 233 233 239 239 237 232 228 225 228 231 236 238 238 238 236 232 237 237 241 241 235 239 242 244 241 239 239
255 256 263 264 259 258 268 273 279 271 277 281 281 282 279 283 285 285 286 277 274 279 291 291 284 273 262 266 272 277 272 261 248 240 233 231 249 231 246 254 238 197 206 205 210 209 208 208 210 210 212 215 218 220 221 224 225 229 230 232 232 236 240 245 249 237 220 225 232 238 239 239 240 247 248 251 244 233 239 250 248 243 239 238 237
236 256 256 258 265 262 263 269 277 294 287 286 282 281 286 279 281 282 285 289 279 282 286 290 289 281 273 269 267 271 274 271 273 262 246 249 253 248 232 258 252 239 200 211 205 210 211 210 209 210 211 214 216 218 221 222 226 227 229 232 235 238 243 245 244 244 243 240 240 244 242 244 248 246 253 254 251 250 248 246 246 245 247 250 251
229 233 256 263 266 273 271 276 283 279 281 286 288 277 273 276 277 283 289 294 305 288 281 283 287 284 278 272 267 258 254 255 256 259 255 248 241 243 238 224 241 242 226 232 218 207 205 210 210 209 212 213 214 217 219 222 225 227 230 231 232 235 238 239 240 238 238 241 243 243 246 247 246 249 251 253 253 252 250 247 245 246 247 250 252
221 223 240 253 261 268 274 279 287 292 300 292 283 282 278 281 286 284 285 286 290 293 289 289 285 279 269 257 257 265 269 267 261 260 266 256 241 234 247 245 208 213 207 227 237 210 197 204 208 210 211 213 213 214 217 221 223 226 227 229 232 234 234 235 238 240 237 240 243 245 246 245 247 249 248 249 250 249 249 247 246 250 251 250 248
223 223 236 256 269 282 293 303 306 293 279 276 279 286 284 279 277 278 286 288 284 293 298 297 300 299 296 289 281 273 269 257 253 254 254 253 247 248 247 253 241 216 191 210 229 209 197 198 204 209 211 212 213 212 215 219 222 225 226 227 229 231 232 235 238 242 242 241 241 242 242 240 242 242 242 246 247 246 245 244 246 247 246 247 248
231 225 234 246 252 262 274 275 260 263 273 273 273 273 284 282 279 281 280 280 284 286 290 294 295 290 287 282 279 265 257 261 271 266 259 258 262 262 252 238 237 240 226 215 227 216 206 189 202 209 212 212 212 213 213 216 219 222 224 226 227 229 232 233 237 238 238 236 237 240 238 238 240 240 241 241 242 242 243 243 242 242 243 245 248
224 225 234 248 251 250 249 237 251 260 259 259 262 257 256 263 271 282 286 281 272 260 256 262 266 272 282 279 272 271 266 265 264 263 260 256 250 243 241 235 232 229 235 224 217 227 199 191 198 210 224 205 209 212 214 214 217 219 222 224 225 228 229 231 233 234 234 232 234 237 237 236 237 240 242 243 241 241 243 244 244 244 245 247 249
225 226 230 231 237 244 235 231 242 247 253 262 271 279 288 287 298 279 272 273 273 272 266 283 292 287 278 271 266 261 258 251 253 258 259 259 255 246 240 242 242 235 227 236 226 224 224 187 196 200 218 231 202 208 210 213 215 217 220 221 224 225 227 228 229 231 232 233 233 233 235 234 235 237 240 242 244 242 241 243 245 245 246 247 245
216 215 223 224 225 227 222 229 232 243 251 258 267 272 270 270 272 291 285 283 275 271 278 281 272 285 293 293 291 287 272 264 257 252 253 250 251 249 252 249 241 234 231 228 229 228 229 214 189 201 207 225 216 203 207 211 215 217 217 218 221 223 225 226 227 227 229 231 232 229 229 232 233 235 237 240 241 242 242 242 244 246 245 242 240
218 210 217 222 230 233 235 233 232 239 242 249 254 256 264 270 266 257 281 272 269 269 251 239 261 262 281 287 274 280 256 256 251 253 256 258 255 251 243 238 237 239 236 231 224 229 237 232 208 201 210 202 217 206 203 204 211 208 211 213 216 219 222 224 225 225 226 228 229 228 227 229 231 232 234 236 238 239 240 241 242 243 240 239 246
224 224 226 226 225 230 242 249 241 236 246 256 260 266 265 262 260 254 252 262 266 260 255 242 244 274 272 272 310 291 286 258 260 253 244 243 247 252 244 238 239 237 236 238 231 221 225 237 236 213 205 214 211 203 212 214 204 196 201 209 211 214 218 221 223 225 225 225 226 225 226 228 228 229 230 231 234 236 237 238 239 239 240 247 257
233 231 234 232 224 225 238 249 256 253 253 259 261 261 263 268 269 271 261 262 271 288 272 280 284 264 264 273 259 250 255 292 318 294 273 261 249 244 243 251 249 238 235 235 236 236 229 220 221 225 209 213 214 212 215 212 208 202 197 200 205 210 213 216 219 222 224 224 223 223 224 225 227 228 228 230 230 233 235 236 242 245 251 255 284
235 237 235 236 228 230 237 247 254 254 250 259 268 270 262 256 252 254 256 244 246 249 269 250 235 260 261 258 261 272 273 269 265 272 267 270 277 275 266 250 242 242 240 235 229 233 234 241 228 210 218 218 217 215 216 216 211 206 204 198 200 203 210 212 216 219 222 223 223 222 222 224 227 229 229 230 230 231 231 233 250 271 274 221 244
249 242 237 235 239 239 239 243 250 254 254 254 256 259 264 263 259 249 245 246 239 236 242 258 259 244 246 249 251 250 252 259 254 258 266 259 252 251 246 242 240 242 239 233 226 227 237 239 233 225 217 218 217 223 219 216 209 215 204 197 190 202 207 209 212 215 218 220 221 222 223 225 227 229 229 229 230 230 230 241 238 264 254 248 271
253 255 243 237 239 242 237 238 244 250 255 255 256 259 264 267 264 262 259 250 240 240 246 243 246 254 248 257 269 270 265 261 266 276 270 267 255 252 252 255 253 242 238 236 231 225 225 228 234 234 229 216 213 224 223 218 208 208 211 200 191 198 205 210 210 212 214 217 219 221 224 226 228 229 229 230 230 230 231 220 217 237 231 223 251
245 247 239 238 237 240 239 239 245 251 254 254 252 254 255 258 258 255 248 242 239 241 239 244 247 252 261 253 249 254 254 259 268 262 268 277 265 253 251 246 247 249 244 238 235 233 231 229 232 240 235 217 205 215 224 221 210 206 217 194 196 197 201 206 209 211 212 214 216 219 222 226 228 229 229 230 229 231 223 227 235 228 198 250 263
242 237 238 240 240 233 233 239 246 251 250 252 255 255 253 250 250 250 250 245 239 237 235 235 231 248 248 248 238 241 243 238 233 242 243 241 261 258 251 247 239 233 240 240 239 234 232 228 222 223 229 232 218 206 221 220 218 211 213 193 194 199 203 204 207 210 211 213 215 218 222 225 227 228 228 227 227 223 234 216 230 235 214 207 216
250 253 249 243 241 245 252 251 250 251 248 253 253 255 256 255 254 249 246 246 244 241 240 236 229 234 242 238 242 242 241 242 239 242 244 244 250 250 247 245 250 254 236 237 238 236 232 229 229 222 219 224 219 217 209 216 219 224 216 182 191 200 203 205 208 209 211 213 214 216 220 224 226 226 224 222 218 225 226 229 234 222 193 183 178
245 251 254 251 250 249 248 252 252 252 253 255 262 266 267 265 262 260 255 246 243 244 244 242 238 234 236 241 245 245 244 244 246 247 250 247 252 256 253 249 245 244 244 238 233 235 234 231 226 235 234 224 217 211 213 215 216 212 213 185 191 196 202 208 207 213 212 213 214 214 217 220 222 220 216 213 214 214 220 223 208 194 180 176 174
250 256 257 251 251 249 248 249 245 242 251 266 273 275 273 272 270 263 259 256 252 245 238 236 238 243 245 247 247 246 245 246 244 247 251 252 253 259 263 263 256 247 244 244 233 228 232 232 231 225 226 227 224 206 209 213 225 186 209 188 190 193 202 205 209 212 214 215 214 214 214 215 214 208 203 199 206 211 208 198 195 188 177 176 175
270 263 270 273 268 265 257 257 258 261 263 263 265 267 271 268 263 261 261 261 259 251 245 248 248 248 248 250 247 247 249 245 246 247 248 252 258 253 258 259 252 252 247 240 246 246 224 228 229 233 227 226 221 205 217 219 223 168 189 217 182 193 199 205 207 209 213 215 215 213 212 209 207 204 188 200 203 200 199 198 191 185 182 181 179
284 285 285 280 278 274 270 268 268 267 263 259 261 260 258 256 258 260 259 255 254 254 254 253 253 251 249 250 253 252 250 249 246 244 245 242 234 242 248 250 248 248 245 239 239 243 250 236 225 226 229 224 223 223 218 216 225 154 176 211 202 187 196 204 208 210 210 211 213 213 211 208 198 194 197 197 198 195 189 193 193 191 188 186 180
279 280 278 275 274 273 270 267 264 263 261 261 261 263 263 260 255 252 252 251 250 249 251 254 256 255 255 253 252 252 249 249 245 243 239 237 242 252 280 265 262 252 247 248 239 234 231 239 237 235 228 234 222 221 215 224 222 147 178 204 211 186 194 198 206 208 207 208 209 209 206 200 185 196 198 194 191 186 190 196 195 193 190 188 186
280 277 276 276 276 277 278 280 279 275 268 261 260 260 259 259 259 257 256 253 252 252 252 253 252 252 251 250 249 249 248 248 248 246 246 245 239 238 242 242 252 253 251 248 244 246 232 227 228 233 230 235 230 225 222 218 190 153 193 209 203 204 183 196 199 203 203 203 206 202 197 190 190 193 189 187 186 188 192 197 199 193 188 190 187
302 297 293 284 279 276 273 273 273 273 274 274 270 263 258 255 256 257 258 258 256 255 252 252 252 250 250 250 250 249 247 246 247 244 243 237 232 237 241 242 253 253 247 249 251 245 242 235 239 227 232 237 242 222 243 229 166 176 207 206 202 210 164 189 191 195 197 198 198 191 180 180 184 186 182 184 187 187 190 197 198 195 190 189 182
280 280 279 278 276 275 272 269 266 265 264 263 262 263 263 261 259 258 258 257 256 254 253 249 251 252 251 250 249 251 251 251 252 248 245 241 239 235 238 247 258 279 267 253 254 246 250 243 241 261 215 227 241 249 235 235 164 183 216 210 212 159 154 177 184 187 192 188 182 178 173 176 182 179 181 184 185 184 190 195 197 193 188 187 178
289 287 281 281 282 283 282 280 276 272 268 264 263 261 259 257 260 260 261 259 256 255 258 257 255 250 248 248 249 252 253 254 254 254 252 250 242 236 237 232 231 254 265 270 257 251 242 250 244 215 223 228 234 238 242 241 147 179 219 208 166 125 168 170 177 181 181 175 171 173 175 175 177 180 182 183 183 186 193 191 191 191 184 178 170
286 283 281 278 277 275 276 276 275 272 272 272 273 273 270 266 260 264 267 267 265 261 257 261 259 258 255 252 250 250 252 253 250 247 236 233 242 240 224 219 240 241 240 238 249 250 242 249 249 237 228 227 228 228 233 228 204 181 210 205 170 184 186 192 181 179 179 174 172 173 173 173 176 181 181 183 185 188 190 188 187 185 177 173 168
278 279 280 282 278 276 273 272 272 272 271 269 266 266 264 262 263 262 265 263 260 258 261 261 258 258 257 254 252 252 249 250 251 253 250 247 241 232 216 216 230 241 237 249 249 248 247 239 241 236 237 235 259 248 238 224 219 194 194 195 186 189 196 187 190 187 182 177 174 173 171 171 176 179 182 184 187 187 186 187 180 176 172 162 143
277 277 279 281 283 281 277 274 273 272 270 269 268 266 266 265 263 263 264 267 266 264 259 258 258 257 257 255 255 253 251 251 248 245 246 248 249 247 238 225 230 235 238 233 260 261 255 248 239 234 224 217 228 232 237 231 221 203 193 196 192 187 193 197 190 193 172 180 175 171 172 173 175 181 182 183 184 185 184 179 174 169 153 137 133
270 276 281 283 283 279 276 273 270 268 267 265 265 263 263 263 264 263 264 264 267 267 266 265 265 263 261 261 258 255 253 255 255 250 242 241 242 246 242 234 236 236 237 229 240 254 258 262 250 238 229 219 221 235 239 242 222 208 202 197 201 193 192 198 201 196 166 174 175 173 174 174 176 180 180 179 181 178 173 166 154 142 138 136 138
270 274 275 278 278 275 274 269 266 264 264 264 263 263 262 263 264 266 265 265 264 265 265 263 263 263 263 262 262 260 256 252 252 251 249 241 234 242 244 239 234 236 239 228 227 236 253 254 263 254 240 229 209 217 218 242 224 213 204 203 201 199 198 200 202 154 146 169 172 176 177 175 178 179 181 179 176 169 157 148 146 143 142 142 143
261 265 268 269 277 280 278 273 270 266 264 262 263 263 263 264 264 264 264 264 264 264 265 263 261 260 260 261 262 261 260 256 255 252 249 242 235 236 239 236 234 233 231 228 222 226 234 241 247 257 243 219 217 209 202 223 227 218 210 205 200 199 198 199 199 144 167 167 176 180 175 180 182 183 182 175 165 155 152 150 148 148 147 147 149
261 265 265 269 273 276 273 270 267 267 266 264 262 261 261 262 262 262 262 262 263 264 263 264 264 264 261 260 261 259 259 257 257 256 250 246 240 235 232 237 234 220 227 235 231 237 238 247 250 242 256 242 220 207 193 223 248 235 222 206 203 198 200 196 198 156 177 177 185 186 191 194 181 187 176 170 159 156 155 153 153 151 152 151 153
262 265 271 273 274 272 269 269 268 267 265 263 261 260 260 260 260 260 261 262 263 262 262 262 262 262 263 261 258 258 257 257 256 255 250 245 245 240 234 231 234 226 222 219 221 228 241 240 249 249 250 257 245 213 168 182 230 230 201 227 211 203 196 197 203 188 182 180 185 188 183 186 170 177 157 166 161 157 155 155 155 153 152 153 158
269 268 268 270 270 270 267 266 267 264 264 262 260 258 259 259 259 261 261 261 263 266 265 263 263 262 262 262 260 258 256 254 252 254 255 255 252 248 239 227 224 228 216 217 222 213 229 230 245 251 249 249 254 240 214 196 213 214 201 210 212 199 196 199 203 200 179 187 187 188 190 190 185 185 184 179 167 156 158 167 161 158 158 155 160
267 268 269 271 271 268 268 267 265 265 263 261 259 255 254 261 264 265 265 266 266 267 268 269 266 262 262 261 261 261 260 259 255 250 246 245 243 244 251 246 246 245 226 209 207 211 220 223 223 238 247 234 234 231 228 214 208 202 201 204 212 198 207 201 213 208 179 188 186 189 194 191 189 186 187 190 171 170 171 180 183 174 164 162 164
269 272 274 272 270 269 267 267 267 266 265 262 257 249 243 243 254 264 268 269 270 269 268 267 266 264 261 259 260 257 252 248 248 246 245 242 240 239 235 236 224 229 250 225 221 219 216 229 230 224 234 240 233 232 239 228 237 210 203 197 199 194 210 208 204 190 187 188 196 193 196 199 186 181 193 195 176 187 187 196 174 164 163 167 166
276 278 276 272 272 272 270 269 269 268 268 267 261 253 246 244 244 261 268 269 269 269 268 269 268 266 265 264 261 260 257 255 256 250 238 233 237 238 236 235 235 234 238 239 227 224 219 222 222 226 229 233 229 224 225 210 219 200 194 188 189 192 200 210 202 196 190 195 193 188 189 194 194 187 194 198 189 193 202 181 155 160 167 168 168
281 277 275 275 273 272 271 271 270 270 271 268 256 247 246 244 240 244 263 268 267 268 267 266 266 266 266 264 262 258 260 252 248 251 255 250 230 231 234 235 235 234 235 234 232 232 223 220 227 230 226 235 235 228 224 232 228 200 210 194 187 199 209 216 210 200 188 189 188 187 196 194 188 190 196 199 193 194 200 156 155 159 169 170 168
278 276 275 274 273 271 271 271 272 272 271 271 262 248 240 238 239 238 256 264 265 265 265 265 265 264 260 261 262 260 258 257 254 250 250 248 251 238 228 229 233 232 231 231 228 227 227 230 231 237 235 234 234 228 222 201 237 226 197 206 201 201 204 210 211 198 189 186 194 165 195 177 187 194 200 196 199 197 197 150 155 159 167 171 168
280 278 277 277 275 274 273 272 272 272 272 269 260 250 241 235 237 236 255 264 268 268 267 265 264 263 263 261 262 262 261 259 255 251 249 250 249 249 248 240 234 233 232 230 229 229 228 230 234 238 238 235 238 239 226 211 215 232 227 209 194 192 198 215 213 70 15 200 187 162 186 188 186 192 197 192 200 202 171 154 156 160 167 171 169
278 278 277 275 275 275 274 274 274 273 273 269 259 249 241 235 233 242 258 263 265 265 266 268 267 263 261 259 258 259 258 257 255 248 248 252 253 252 247 244 245 242 234 230 224 219 220 225 228 233 234 236 236 234 224 215 225 250 255 26 77 150 178 196 209 162 193 191 186 177 197 198 191 196 198 199 193 190 140 157 160 161 167 170 168
281 279 278 277 278 277 277 275 274 275 276 270 260 250 243 239 237 250 257 262 266 267 264 263 262 261 253 248 254 255 254 254 252 247 242 238 249 251 251 247 246 247 246 242 219 213 216 223 230 232 236 239 242 239 236 216 194 212 249 181 214 224 238 219 229 172 189 179 193 193 203 195 190 198 199 185 170 167 145 158 164 165 166 169 166
280 280 280 279 277 275 275 275 274 275 274 269 258 248 240 236 234 252 259 262 259 256 269 266 260 259 259 249 249 254 255 255 253 245 236 231 243 246 248 251 252 249 249 249 246 216 210 219 223 230 233 237 240 244 240 230 209 197 229 221 197 185 204 209 206 202 189 187 198 195 204 187 178 195 181 113 107 126 141 153 156 165 167 167 165
280 279 278 278 278 278 276 274 275 273 273 272 265 253 244 239 236 248 253 258 260 261 264 265 262 259 264 254 239 242 251 252 250 244 237 231 244 244 244 245 248 250 247 248 243 245 227 212 232 229 232 233 236 234 236 232 218 197 217 232 204 200 204 209 196 192 195 190 199 189 201 176 174 187 162 141 173 155 145 153 157 156 164 161 161